CZ-3A DEB, 35552

Orbit data source: Space-Track

CZ-3A DEB, 35552 is space debris in HEO originally from a launch on Fri, 02 Feb 2007 UTC launched from the Xichang Space Center, China (XSC). Debris objects in space refer to the collection of defunct objects orbiting the Earth. Examples of debris include non-operational satellites, rocket bodies, and fragments generated from explosions, collisions, or faulty payload assembly.

Loading next visibility...
Identifier
35552, 2007-003L
Orbit
HEO
Country
Flag of CNCN / PRC
Related business
Manufacturer
Unknown
Mission
Spacecraft
Bus & Motor
Unknown
Mass
Unknown
Launch date (UTC)
2007-02-02 (19 years ago)
Launch vehicle
Unknown
Launch site
Xichang Space Center, China (XSC)
Object type
Payload
Rocket body
Debris
Shape & HBR
Unknown shape, 0.3 m
Radar Cross Section
Medium (>0.1 m² and <1 m²)

Expand to show TLE details & history
Last TLE update: 1 day ago

TLE from 1 day ago
0 CZ-3A DEB
1 35552U 07003L   25290.48472051  .00000753  00000-0  34151-2 0  9990
2 35552  25.6862 131.8161 7406914   0.9122   0.0849  2.02509829125610
Epoch: 2025-10-17T11:37Z
TLE epoch observation values (Epoch: 2025-10-17T11:37:59.852Z)
Latitude
0.00106°
Longitude
-68.89033°
Altitude
484.358 km
Speed
10.053 km/s
True Right ascension
08h 47m 21s
True Declination
0° 00' 04"
Sunlit
Object was in daylight at epoch
Visualization orbit readout
Latitude
Unknown
Longitude
Unknown
Altitude
Unknown
Speed
Unknown
Apparent Right ascension
Unknown
Apparent Declination
Unknown
Sunlit
N/A
Visualization observer readout
Local Sidereal Time
10:38:02
Azimuth
Unknown
Elevation
Unknown
Doppler factor
Unknown
Orbital elements
Apogee altitude
39,565.446 km
Perigee altitude
466.021 km
Semi-major axis
26,393.871 km
Eccentricity
0.74069
Inclination
25.6862°
RAAN
131.8161°
Arg. of periapsis
0.9122°
True anomaly
0.84826°
Mean anomaly
0.0849°
Eccentric anomaly
0.3274°
Mean motion
0.50616 °/min
Orbital period
711.24 mins
BSTAR
0.0034151
Loading maneuver chart data...
Computing Atmospheric mass density...
Loading historical data...
Loading historical data...
Loading historical data...
Loading historical data...
Loading historical data...
Loading historical data...
Loading historical data...

Documentation

Showing up to 5 results
|